AirNav   Bose A20 Aviation Headset
 
 1694 users online  

8B5 Tanner-Hiller Airport
Barre/Barre Plains, Massachusetts, USA

GOING TO BARRE/BARRE PLAINS?


FAA INFORMATION EFFECTIVE 11 OCTOBER 2018

Location

FAA Identifier: 8B5
Lat/Long: 42-21-23.0000N / 072-07-48.3000W
42-21.383333N / 072-07.805000W
42.3563889 / -72.1300833
(estimated)
Elevation: 589 ft. / 180 m (estimated)
Variation: 15W (1985)
From city: 4 miles SW of central business district of the associated city
Time zone: UTC -4 (UTC -5 during Standard Time)
Zip code: 01531

Airport Operations

Airport use: Open to the public
Activation date: 11/1946
Control tower: no
ARTCC: BOSTON CENTER
FSS: BRIDGEPORT FLIGHT SERVICE STATION
NOTAMs facility: BDR (NOTAM-D service available)
Attendance: UNATNDD
Wind indicator: yes
Segmented circle: no

Airport Communications

CTAF/UNICOM: 123.0
WX ASOS at ORH (12 nm SE): PHONE 508-795-7546
WX ASOS at ORE (15 nm NW): 135.675 (978-544-6774)

Nearby radio navigation aids

VOR radial/distance  VOR name  Freq  Var
GDMr210/11.8GARDNER VOR/DME110.6014W
CEFr076/20.0WESTOVER VORTAC114.0014W
PUTr346/27.2PUTNAM VOR/DME117.4014W
EENr179/27.2KEENE VORTAC109.4014W
BAFr080/28.5BARNES VORTAC113.0014W
CTRr097/36.6CHESTER VOR/DME115.1013W

 
NDB name  Hdg/Dist  Freq  Var  ID
FITCHBURG250/20.236515WFIT ..-. .. -

Airport Services

Parking: hangars and tiedowns
Airframe service: MINOR
Powerplant service: MINOR
Bottled oxygen: NONE
Bulk oxygen: NONE

Runway Information

Runway 6/24

Dimensions: 3027 x 40 ft. / 923 x 12 m
Surface: asphalt, in fair condition
Weight bearing capacity: 
Single wheel: 9.0
RUNWAY 6  RUNWAY 24
Latitude: 42-21.210210N42-21.556043N
Longitude: 072-08.047612W072-07.563877W
Elevation: 581.6 ft.589.0 ft.
Gradient: 0.1%0.1%
Traffic pattern: leftleft
Displaced threshold: 150 ft.200 ft.
Markings: numbers only, in fair conditionnumbers only, in fair condition
Runway end identifier lights: nono
Touchdown point: yes, no lightsyes, no lights
Obstructions: 25 ft. trees, 400 ft. from runway, 100 ft. right of centerline, 8:1 slope to clear
72 FT TREES 57 FT FM THLD 65 FT L.
33 ft. trees, 400 ft. from runway, 39 ft. left and right of centerline, 6:1 slope to clear
RY 24 30:1 AT DSPLCD THLD.

Airport Ownership and Management from official FAA records

Ownership: Privately-owned
Owner: G&C GROUP USA
525 MAIN ST
ACTON, MA 01720
Phone (781) 296-1120
Manager: DOUG HERLIHY
295 MCEVOY ROAD
NEW BRAINTREE, MA 01531
Phone (609) 923-3228

Airport Operational Statistics

Aircraft based on the field: 25
Single engine airplanes: 4
Gliders airplanes: 15
Ultralights: 6
    
Aircraft operations: avg 47/month *
88% local general aviation
9% transient general aviation
3% military
* for 12-month period ending 27 April 2016

Additional Remarks

RWY 24 HAS GRVL OVRN, RWY 06 HAS TURF OVRN.
GLIDERS OPR FM ARPT ON INTMT BASIS. GLIDERS AND POWERED ACFT: FOLLOW LEFT TRAFFIC PATTERN ON BOTH RWYS.
WILDLIFE ON & INVOF ARPT.
FUEL NOT AVBL.
AP CLSD EXC PPR - REF NOTAMS
FOR CD CTC YANKEE APCH AT 860-386-3597

Instrument Procedures

There are no published instrument procedures at 8B5.

Some nearby airports with instrument procedures:

KORH - Worcester Regional Airport (12 nm SE)
KGDM - Gardner Municipal Airport (13 nm NE)
KORE - Orange Municipal Airport (15 nm NW)
3B0 - Southbridge Municipal Airport (16 nm S)
KFIT - Fitchburg Municipal Airport (20 nm NE)
 
Loc | Ops | Rwys | IFR | FBO | Links
Com | Nav | Svcs | Stats | Notes


 
Area around 8B5 (Tanner-Hiller Airport)
 
Road maps at: MapQuest Bing Google
 
Aerial photo
WARNING: Photo may not be current or correct
Aerial photo of 8B5 (Tanner-Hiller Airport)
Photo by Bruce Vinal, Aerial Perspectives
Photo taken 18-Dec-2010
looking southwest.

Do you have a better or more recent aerial photo of Tanner-Hiller Airport that you would like to share? If so, please send us your photo.

 
Sectional chart

 
Airport distance calculator
Flying to Tanner-Hiller Airport? Find the distance to fly.

From to 8B5

Sunrise and sunset
Times for 16-Oct-2018
 Local
(UTC-4)
 Zulu
(UTC)
Morning civil twilight06:3510:35
Sunrise07:0311:03
Sunset18:0522:05
Evening civil twilight18:3322:33

Current date and time
Zulu (UTC)  16-Oct-2018 17:52:01
Local (UTC-4)  16-Oct-2018 13:52:01
 
METAR
KORH 
13nm SE 
161654Z 29012G21KT 10SM CLR 10/M01 A3001 RMK AO2 SLP167 T01001006
KORE 
14nm NW 
161652Z AUTO 30012G18KT 10SM CLR 12/M01 A3004 RMK AO2 SLP174 T01171006
KCEF 
20nm SW 
161656Z 29016KT 10SM FEW048 SCT200 12/M01 A3004 RMK AO2A SLP179 T01241008 $
KFIT 
20nm NE 
161652Z AUTO 30008G18KT 10SM CLR 12/M01 A3002 RMK AO2 SLP166 T01171011
TAF
KORH 
13nm SE 
161121Z 1612/1712 28015KT P6SM SKC FM162100 26010KT P6SM SKC FM170000 24006KT P6SM SKC
KCEF 
20nm SW 
161039Z 1610/1716 31009KT 9999 FEW040 SCT200 QNH3000INS TEMPO 1610/1614 29015G25KT 520004 BECMG 1613/1614 28010G15KT 9999 FEW045 QNH3000INS TEMPO 1614/1618 27015G25KT 520004 BECMG 1617/1618 26010G15KT 9999 SCT045 QNH3001INS BECMG 1621/1622 23006KT 9999 FEW035 SCT090 QNH2993INS BECMG 1709/1710 21006KT 9999 BKN060 620602 QNH2981INS BECMG 1715/1716 28015G25KT 9000 -SHRA BKN040 BKN100 610406 520004 QNH2981INS TX13/1619Z TN04/1710Z
NOTAMs
Click for the latest NOTAMs
NOTAMs are issued by the DoD/FAA and will open in a separate window not controlled by AirNav.

 

 
 

Would you like to see your business listed on this page?

 If your business provides an interesting product or service to pilots, flight crews, aircraft, or users of the Tanner-Hiller Airport, you should consider listing it here.  To start the listing process, click on the button below
 
Add a business
 

Other Pages about Tanner-Hiller Airport

www.tannerhillerairport.com
 
Update a link
 
Copyright © AirNav, LLC. All rights reserved. Privacy Policy  Contact